Weather reports worldwide

Advertisment
Tain Range, United Kingdom (3062): temperature & dewpoint: 17.04.2018 14:00:00 - 23.04.2018 14:00:00 (BST)Tain Range, United Kingdom (3062): temperature -20cm & temperature -100cm: 17.04.2018 14:00:00 - 23.04.2018 14:00:00 (BST)Tain Range, United Kingdom (3062): wind speed & gusts: 17.04.2018 14:00:00 - 23.04.2018 14:00:00 (BST)Tain Range, United Kingdom (3062): wind direction: 17.04.2018 14:00:00 - 23.04.2018 14:00:00 (BST)Tain Range, United Kingdom (3062): reduced air pressure: 17.04.2018 14:00:00 - 23.04.2018 14:00:00 (BST)Tain Range, United Kingdom (3062): visibility: 17.04.2018 14:00:00 - 23.04.2018 14:00:00 (BST)Tain Range, United Kingdom (3062): precipitation: 17.04.2018 14:00:00 - 23.04.2018 14:00:00 (BST)
Date & Time tt [°C] td [°C] tt -20cm [°C] tt -100cm [°C] ff [km/h] ff [kn] fx [km/h] fx [kn] dd ppp [hPa] vv [km] rr [mm]
23.04.2018 14:00:00 12,3 5,3 - - 28 15 46 25 SW 1002,9 35 0,0
23.04.2018 13:00:00 11,8 5,8 - - 29 16 - - WSW 1003,2 40 0,0
23.04.2018 12:00:00 12,2 5,5 - - 24 13 48 26 WSW 1002,9 50 0,0
23.04.2018 11:00:00 9,9 6,1 - - 13 7 - - NW 1003,0 35 0,0
23.04.2018 10:00:00 10,7 4,2 - - 21 11 - - W 1002,6 50 0,0
23.04.2018 09:00:00 9,3 4,9 - - 21 11 - - W 1002,5 50 0,0
23.04.2018 08:00:00 8,6 5,4 - - 18 10 - - W 1002,2 45 0,0
23.04.2018 07:00:00 8,5 6,2 - - 28 15 - - WNW 1001,4 22 0,0
23.04.2018 06:00:00 8,5 6,7 - - 29 16 - - W 1000,2 45 0,0
23.04.2018 05:00:00 7,9 5,8 - - 9 5 - - WSW 999,5 50 0,0
23.04.2018 04:00:00 7,9 5,7 - - 15 8 - - SW 999,0 50 0,0
23.04.2018 03:00:00 8,2 6,3 - - 21 11 - - SW 998,5 50 0,0
23.04.2018 02:00:00 8,3 6,5 - - 16 9 - - SSW 998,4 50 0,0
23.04.2018 01:00:00 7,7 6,2 - - 16 9 - - SSW 998,4 50 0,0
23.04.2018 00:00:00 7,9 5,9 - - 13 7 - - SSW 998,5 50 0,0
22.04.2018 23:00:00 8,7 6,2 - - 15 8 - - SSW 998,7 50 0,0
22.04.2018 22:00:00 8,7 5,9 - - 16 9 - - SSW 998,8 50 0,0
22.04.2018 21:00:00 8,9 5,2 - - 16 9 - - SSW 999,0 35 0,0
22.04.2018 20:00:00 9,8 5,8 - - 15 8 - - SSW 999,1 30 0,0
22.04.2018 19:00:00 11,1 4,7 - - 15 8 - - SW 999,2 40 0,0
22.04.2018 18:00:00 10,6 4,4 - - 18 10 - - W 999,3 50 0,0
22.04.2018 17:00:00 10,4 6,5 - - 28 15 - - WSW 999,3 50 0,0
22.04.2018 16:00:00 10,1 8,0 - - 22 12 - - WSW 999,5 45 0,6
22.04.2018 15:00:00 11,0 8,0 - - 22 12 - - SW 999,2 50 0,0
22.04.2018 14:00:00 12,0 7,4 - - 21 11 - - SW 999,3 50 0,0
22.04.2018 13:00:00 11,0 7,7 - - 24 13 - - SW 999,6 26 0,0
22.04.2018 12:00:00 11,2 7,0 - - 26 14 - - SW 999,9 50 0,0
22.04.2018 11:00:00 9,9 6,8 - - 11 6 - - SW 1000,5 40 0,0
22.04.2018 10:00:00 8,8 8,8 9,7 7,7 5 3 - - S 1000,9 22 0,0
22.04.2018 09:00:00 8,3 8,3 - - 5 3 - - SW 1001,3 5 0,0
22.04.2018 08:00:00 6,3 6,3 - - 5 3 - - WNW 1001,6 2,0 0,0
22.04.2018 07:00:00 5,2 5,2 - - 4 2 - - W 1001,8 1,1 0,0
22.04.2018 06:00:00 4,3 4,3 - - 4 2 - - NE 1002,2 0,3 0,0
22.04.2018 05:00:00 4,0 4,0 - - 5 3 - - WNW 1003,2 1,0 0,0
22.04.2018 04:00:00 3,4 3,2 - - 4 2 - - W 1004,3 5 0,0
22.04.2018 03:00:00 4,7 4,7 - - 4 2 - - W 1005,1 19 0,0
22.04.2018 02:00:00 4,7 4,6 - - 5 3 - - W 1006,3 21 0,0
22.04.2018 01:00:00 4,3 4,1 - - 4 2 - - W 1007,6 11 0,0
22.04.2018 00:00:00 4,9 4,6 - - 4 2 - - W 1008,5 12 0,0
21.04.2018 23:00:00 6,4 6,3 - - 5 3 - - WNW 1009,3 18 0,0
21.04.2018 22:00:00 5,9 5,5 - - 9 5 - - N 1010,1 13 0,0
21.04.2018 21:00:00 7,6 6,9 - - 9 5 - - N 1011,0 16 0,0
21.04.2018 20:00:00 8,9 7,7 - - 8 4 - - NE 1011,7 24 0,0
21.04.2018 19:00:00 9,6 7,5 - - 11 6 - - NNE 1012,7 30 0,0
21.04.2018 18:00:00 11,0 7,0 - - 13 7 - - NE 1013,1 40 0,0
21.04.2018 17:00:00 14,1 6,8 - - 15 8 - - ESE 1013,8 35 0,0
21.04.2018 16:00:00 13,8 5,8 - - 16 9 - - SE 1014,5 30 0,0
21.04.2018 15:00:00 14,2 5,5 - - 18 10 - - SE 1015,5 50 0,0
21.04.2018 14:00:00 15,9 6,4 - - 13 7 - - SSE 1016,4 29 0,0
21.04.2018 13:00:00 14,6 6,6 - - 15 8 - - SSE 1017,4 35 0,0
21.04.2018 12:00:00 11,9 5,3 - - 8 4 - - SSW 1018,4 50 0,0
21.04.2018 11:00:00 11,9 5,7 - - 16 9 - - SSW 1019,1 50 0,0
21.04.2018 10:00:00 10,6 5,7 9,5 7,5 15 8 - - S 1019,6 50 0,0
21.04.2018 09:00:00 8,4 4,8 - - 11 6 - - S 1020,0 24 0,0
21.04.2018 08:00:00 6,9 4,7 - - 9 5 - - S 1020,6 30 0,0
21.04.2018 07:00:00 4,0 3,9 - - 4 2 - - S 1020,7 45 0,0
21.04.2018 06:00:00 0,7 0,3 - - 8 4 - - SW 1020,6 19 0,0
21.04.2018 05:00:00 1,2 0,7 - - 9 5 - - W 1020,9 21 0,0
21.04.2018 04:00:00 3,0 2,1 - - 8 4 - - W 1021,0 26 0,0
21.04.2018 03:00:00 4,8 3,9 - - 8 4 - - SW 1021,6 45 0,0
21.04.2018 02:00:00 4,6 3,5 - - 13 7 - - S 1021,9 50 0,0
21.04.2018 01:00:00 6,3 4,3 - - 5 3 - - SW 1022,1 35 0,0
21.04.2018 00:00:00 6,9 5,4 - - 8 4 - - SE 1021,9 45 0,0
20.04.2018 23:00:00 6,3 4,2 - - 8 4 - - W 1021,8 50 0,0
20.04.2018 22:00:00 5,2 2,6 - - 9 5 - - WNW 1021,6 50 0,0
20.04.2018 21:00:00 7,3 3,0 - - 11 6 - - SSW 1021,4 50 0,0
20.04.2018 20:00:00 10,4 5,3 - - 18 10 - - WNW 1020,9 50 0,0
20.04.2018 19:00:00 10,9 5,3 - - 28 15 - - W 1020,3 50 0,0
20.04.2018 18:00:00 12,0 5,6 - - 35 19 46 25 WSW 1019,9 45 0,0
20.04.2018 17:00:00 14,5 6,6 - - 26 14 - - WSW 1019,7 30 0,0
20.04.2018 16:00:00 13,8 7,5 - - 29 16 46 25 SW 1019,5 30 0,0
20.04.2018 15:00:00 14,9 6,0 - - 34 18 52 28 WSW 1019,4 30 0,0
20.04.2018 14:00:00 14,6 4,0 - - 31 17 57 31 WSW 1019,1 40 0,0
20.04.2018 13:00:00 15,2 4,8 - - 34 18 54 29 WSW 1019,0 50 0,0
20.04.2018 12:00:00 14,8 7,0 - - 31 17 46 25 WSW 1018,9 22 0,0
20.04.2018 11:00:00 13,3 6,2 - - 24 13 - - WSW 1019,2 35 0,0
20.04.2018 10:00:00 12,9 6,5 9,7 7,2 34 18 - - SW 1018,8 30 0,0
20.04.2018 09:00:00 10,4 6,3 - - 11 6 - - SSW 1019,5 40 0,0
20.04.2018 08:00:00 9,0 6,5 - - 13 7 - - SSW 1019,6 26 0,0
20.04.2018 07:00:00 5,1 4,2 - - 13 7 - - S 1019,8 30 0,0
20.04.2018 06:00:00 5,9 4,2 - - 15 8 - - SW 1020,0 40 0,0
20.04.2018 05:00:00 5,9 4,5 - - 11 6 - - WSW 1020,3 45 0,0
20.04.2018 04:00:00 7,2 5,5 - - 13 7 - - SW 1020,6 50 0,0
20.04.2018 03:00:00 6,3 4,8 - - 9 5 - - SW 1020,9 40 0,0
20.04.2018 02:00:00 5,1 3,7 - - 11 6 - - SW 1021,2 50 0,0
20.04.2018 01:00:00 7,0 5,6 - - 13 7 - - SSW 1021,5 45 0,0
20.04.2018 00:00:00 6,2 5,0 - - 13 7 - - SW 1021,6 45 0,0
19.04.2018 23:00:00 6,7 4,0 - - 8 4 - - W 1021,8 50 0,0
19.04.2018 22:00:00 8,1 6,4 - - 5 3 - - NNE 1021,8 50 0,0
19.04.2018 21:00:00 10,3 6,9 - - 9 5 - - WSW 1021,4 50 0,0
19.04.2018 20:00:00 13,8 8,0 - - 11 6 - - W 1021,0 50 0,0
19.04.2018 19:00:00 16,1 8,9 - - 15 8 - - WSW 1020,6 50 0,0
19.04.2018 18:00:00 17,0 8,2 - - 26 14 - - SW 1020,3 45 0,0
19.04.2018 17:00:00 17,7 8,3 - - 26 14 - - SSW 1019,7 35 0,0
19.04.2018 16:00:00 17,2 8,3 - - 26 14 - - SSW 1019,8 40 0,0
19.04.2018 15:00:00 17,8 10,1 - - 29 16 - - SSW 1019,8 30 0,0
19.04.2018 14:00:00 17,5 10,1 - - 24 13 - - SSW 1019,5 30 0,0
19.04.2018 13:00:00 16,5 9,8 - - 24 13 - - SW 1019,5 40 0,0
19.04.2018 12:00:00 16,9 11,0 - - 24 13 - - SSW 1019,3 50 0,0
19.04.2018 11:00:00 15,9 10,0 - - 29 16 - - SSW 1018,9 40 0,0
19.04.2018 10:00:00 15,0 9,6 9,4 7,0 24 13 - - S 1018,6 50 0,0
19.04.2018 09:00:00 15,2 9,6 - - 21 11 - - SSW 1018,1 40 0,0
19.04.2018 08:00:00 14,3 9,7 - - 15 8 - - SSW 1017,5 50 0,0
19.04.2018 07:00:00 13,3 9,3 - - 18 10 - - SSW 1017,0 45 -
19.04.2018 06:00:00 11,8 8,2 - - 18 10 - - SSW 1016,5 50 -
19.04.2018 05:00:00 12,6 8,5 - - 16 9 - - SW 1016,2 40 -
19.04.2018 04:00:00 13,5 8,3 - - 13 7 - - SW 1016,0 35 -
19.04.2018 03:00:00 14,8 9,5 - - 22 12 - - S 1015,5 50 -
19.04.2018 02:00:00 14,9 9,7 - - 34 18 52 28 S 1015,5 10 0,0
19.04.2018 01:00:00 15,8 10,0 - - 37 20 57 31 S 1015,7 50 0,0
19.04.2018 00:00:00 15,9 9,8 - - 37 20 54 29 S 1016,2 50 0,0
18.04.2018 23:00:00 15,4 9,2 - - 37 20 54 29 SSE 1016,6 40 0,0
18.04.2018 22:00:00 15,0 9,0 - - 34 18 48 26 SSE 1017,0 50 0,0
18.04.2018 21:00:00 15,0 9,0 - - 34 18 - - S 1016,7 45 0,0
18.04.2018 20:00:00 15,2 9,3 - - 26 14 - - S 1016,9 45 0,0
18.04.2018 19:00:00 15,6 9,8 - - 21 11 - - S 1017,4 50 0,0
18.04.2018 18:00:00 16,3 8,6 - - 22 12 - - S 1017,8 50 0,0
18.04.2018 17:00:00 17,8 9,0 - - 15 8 - - ESE 1017,9 50 0,0
18.04.2018 16:00:00 18,7 8,8 - - 22 12 - - SSW 1018,0 35 0,0
18.04.2018 15:00:00 17,1 8,2 - - 22 12 - - SSW 1018,3 50 0,0
18.04.2018 14:00:00 16,4 8,7 - - 28 15 - - SSW 1018,5 45 0,0
18.04.2018 13:00:00 15,8 8,9 - - 22 12 - - S 1018,4 45 0,0
18.04.2018 12:00:00 16,4 8,8 - - 21 11 - - SE 1017,9 40 0,0
18.04.2018 11:00:00 15,3 9,2 - - 15 8 - - SSE 1017,4 30 0,0
18.04.2018 10:00:00 13,3 7,7 8,7 6,7 18 10 - - SE 1017,2 27 0,0
18.04.2018 09:00:00 12,6 8,7 - - 21 11 - - SSE 1016,3 22 0,0
18.04.2018 08:00:00 10,8 8,1 - - 18 10 - - SSE 1015,6 30 0,0
18.04.2018 07:00:00 7,9 6,9 - - 8 4 - - SE 1014,9 21 0,0
18.04.2018 06:00:00 5,3 4,4 - - 8 4 - - NE 1014,4 16 0,0
18.04.2018 05:00:00 7,6 6,0 - - 5 3 - - E 1013,9 23 0,0
18.04.2018 04:00:00 9,3 7,2 - - 11 6 - - SE 1013,3 35 0,0
18.04.2018 03:00:00 9,2 7,2 - - 16 9 - - SSE 1012,9 35 0,0
18.04.2018 02:00:00 9,7 6,6 - - 11 6 - - SSE 1012,7 40 0,0
18.04.2018 01:00:00 8,3 6,1 - - 15 8 - - SSE 1011,6 40 0,0
18.04.2018 00:00:00 10,3 6,9 - - 21 11 - - S 1010,5 40 0,0
17.04.2018 23:00:00 11,0 7,5 - - 18 10 - - S 1009,7 45 0,0
17.04.2018 22:00:00 10,0 7,1 - - 9 5 - - S 1008,5 30 0,0
17.04.2018 21:00:00 9,3 7,0 - - 8 4 - - ENE 1007,6 40 0,0
17.04.2018 20:00:00 12,4 7,7 - - 11 6 - - SSW 1006,5 25 0,0
17.04.2018 19:00:00 14,2 7,3 - - 28 15 - - SSW 1005,7 45 0,0
17.04.2018 18:00:00 15,9 7,2 - - 28 15 48 26 SSW 1004,2 45 0,0
17.04.2018 17:00:00 16,1 6,6 - - 28 15 54 29 SSW 1003,3 40 0,0
17.04.2018 16:00:00 17,4 6,7 - - 34 18 50 27 SSW 1002,8 40 0,0
17.04.2018 15:00:00 15,8 6,4 - - 34 18 50 27 SSW 1002,5 50 0,0
17.04.2018 14:00:00 15,6 6,5 - - 26 14 52 28 S 1002,3 29 0,0

tt = temperature
td = dewpoint
tt -20cm = temperature -20cm
tt -100cm = temperature -100cm
ff = wind speed
fx = gusts
dd = wind direction
ppp = reduced air pressure
vv = visibility
rr = precipitation

Next stations